Regional Weather Roundup
Issued by NWS

Home | Current Version | Previous Version | Graphics & Text | Print | Product List | Glossary On
Versions: 1 2 3 4 5 6 7 8 9 10 11 12 13 14 15 16 17 18 19 20 21 22 23 24 25 26 27 28 29 30 31 32 33 34 35 36 37 38 39 40 41 42 43 44 45 46 47 48 49 50
953
ASUS43 KIND 092259
RWRIN

WEATHER ROUNDUP FOR INDIANA
NATIONAL WEATHER SERVICE INDIANAPOLIS IN
600 PM EST TUE FEB 09 2016

NOTE: "FAIR" INDICATES FEW OR NO CLOUDS BELOW 12,000 FEET WITH NO
SIGNIFICANT WEATHER AND/OR OBSTRUCTIONS TO VISIBILITY.

* - STATION DOES NOT REPORT WEATHER SUCH AS PRECIPITATION OR FOG.

+ - STATION NOT QUALITY CONTROLLED BY THE NATIONAL WEATHER SERVICE.
    USE DATA WITH CAUTION...ESPECIALLY DEWPOINT AND RELATIVE
    HUMIDITY OBSERVATIONS.

INZ001>003-010>013-019-020-100000-
NORTHWEST INDIANA

CITY           SKY/WX    TMP DP  RH WIND       PRES   REMARKS
GARY /AIRPORT/ CLOUDY    19   9  63 W14       29.91R WCI   6
MONTICELLO +   CLOUDY    18   8  63 W13       29.89R WCI   5

$$

LMZ046-743>745-100000-
SOUTHERN LAKE MICHIGAN

STATION/POSITION TIME  TEMP    WIND        PRES    WAVE
                       AIR SEA DIR/SP/G            HT
                 (UTC) (F)     (DEG/KT/KT) (MB)    (FT)
BURNS HARBOR     2220   20     300/ 15/ 20 1011.9R
MICHIGAN CITY    2200   20     260/ 23/ 25   N/A

$$

INZ004-005-014>016-021>024-100000-
NORTH CENTRAL INDIANA

CITY           SKY/WX    TMP DP  RH WIND       PRES   REMARKS
ELKHART        LGT SNOW  21  18  86 NW12      29.82R WCI   9
GOSHEN         LGT SNOW  22  17  81 W16       29.80R WCI   8
SOUTH BEND     LGT SNOW  20  16  84 W13       29.83R FOG     WCI   7

$$

INZ006>009-017-018-025>027-100000-
NORTHEAST INDIANA

CITY           SKY/WX    TMP DP  RH WIND       PRES   REMARKS
ANGOLA *+      CLOUDY    23  19  86 NW12      29.73R WCI  12
FORT WAYNE     FLURRIES  23  17  78 W18G25    29.79R WCI   9

$$

INZ028-029-035-036-043>045-051>053-100000-
WEST CENTRAL INDIANA

CITY           SKY/WX    TMP DP  RH WIND       PRES   REMARKS
GREENCASTLE +  CLOUDY    18   9  68 W9G21     29.92R HAZE    WCI   6
LAFAYETTE      CLOUDY    17  10  74 W15       29.92R WCI   2
TERRE HAUTE    CLOUDY    19  10  68 NW14      29.96R WCI   6

$$

INZ030>032-037>040-046>048-054>057-064-065-100000-
CENTRAL INDIANA

CITY           SKY/WX    TMP DP  RH WIND       PRES   REMARKS
COLUMBUS       LGT SNOW  21  18  86 W15       29.91R FOG     WCI   8
FRANKFORT +    LGT SNOW  18   8  64 W16       29.90R WCI   4
INDIANAPOLIS   LGT SNOW  19  14  81 W17G23    29.89R WCI   4
-EAGLE CREEK   LGT SNOW  19  13  77 W17       29.89R WCI   4
KOKOMO *+      CLOUDY    19  10  68 W16G23    29.85R WCI   5
MT COMFORT *+  CLOUDY    19  14  79 W16G23    29.87R WCI   5
SHELBYVILLE    LGT SNOW  21  15  78 W16       29.88R WCI   7

$$

INZ033-034-041-042-049-050-058-059-100000-
EAST CENTRAL INDIANA

CITY           SKY/WX    TMP DP  RH WIND       PRES   REMARKS
MUNCIE         LGT SNOW  22  16  78 W16G22    29.83R WCI   8

$$

INZ060-061-067>069-081>083-085>088-100000-
SOUTHWEST INDIANA

CITY           SKY/WX    TMP DP  RH WIND       PRES   REMARKS
EVANSVILLE     LGT SNOW  23  14  68 W9        30.03R WCI  13
HUNTINGBURG *+ CLOUDY    21  14  73 W16       30.00R WCI   7

$$

INZ062-063-066-070>080-084-089>092-100000-
SOUTH CENTRAL AND SOUTHEAST INDIANA

CITY           SKY/WX    TMP DP  RH WIND       PRES   REMARKS
BLOOMINGTON    LGT SNOW  19  14  81 NW12G21   29.92R WCI   7
MADISON *+     CLOUDY    23  16  74 W9G16     29.92R WCI  13
SEYMOUR +      LGT SNOW  23  18  80 W13       29.93R WCI  11

$$





USA.gov is the U.S. government's official web portal to all federal, state and local government web resources and services.